Location: Arnshaugk
(50.7294°N, 11.7492°E)
Time: 09:27:09
(UTC+00:00)

Daily predictions for brighter satellites

Satellite Brightness Start Highest point End
(mag) Time Altitude Azimuth Time Altitude Azimuth Time Altitude Azimuth
STARLINK-1246 3.6 19:54:48 10° SW 19:58:54 65° SSE 20:03:01 10° ENE
Cosmos 2082 Rocket 2.6 19:53:23 10° NW 19:59:03 63° WSW 20:04:40 10° SSE
IGS 5A 3.6 19:56:26 10° SSE 20:00:31 61° ENE 20:04:38 10° N
Cosmos 1420 Rocket 4.2 19:56:20 10° SSW 20:01:32 79° WNW 20:06:45 10° NNE
STARLINK-1232 4.0 19:57:30 10° W 20:01:38 68° N 20:05:47 10° ENE
Cosmos 1452 Rocket 3.5 19:56:30 10° SSW 20:01:47 78° ESE 20:07:06 10° NNE
Intercosmos 24 3.8 19:58:15 10° NNW 20:01:51 76° W 20:05:36 10° S
Cosmos 332 Rocket 3.9 19:57:14 10° S 20:02:04 62° ESE 20:06:55 10° NNE
BREEZE-M DEB 4.1 20:00:25 10° SSE 20:02:06 15° SE 20:04:37 10° E
STARLINK-1097 3.6 19:58:13 10° WNW 20:02:22 77° SSW 20:06:30 10° ESE
Landsat 7 3.9 19:58:49 10° SSE 20:03:32 69° ENE 20:08:18 10° N
STARLINK-1224 3.6 19:59:45 10° WSW 20:03:52 69° SSE 20:08:00 10° ENE
STARLINK-1208 4.1 20:02:28 10° W 20:06:36 67° N 20:10:45 10° ENE
STARLINK-1099 3.7 20:03:11 10° WNW 20:07:19 73° SSW 20:11:28 10° ESE
Cosmos 1461 3.1 20:04:20 10° SSW 20:08:21 50° ESE 20:12:36 10° NE
STARLINK-1225 3.6 20:04:43 10° WSW 20:08:51 72° SSE 20:13:00 10° ENE
SAR-Lupe-2 3.9 20:06:49 10° NNE 20:10:20 47° E 20:13:48 10° S
Okean 3 4.1 20:06:17 10° SSW 20:10:33 61° WNW 20:14:51 10° N
STARLINK-1271 4.1 20:07:30 10° W 20:11:37 66° N 20:15:46 10° ENE
Cosmos 2369 Rocket 3.7 20:08:06 10° SE 20:11:48 18° E 20:15:30 10° ENE
STARLINK-1104 3.7 20:08:09 10° WNW 20:12:17 69° SSW 20:16:25 10° ESE
STARLINK-1212 3.6 20:10:37 10° WNW 20:13:42 54° N 20:16:46 10° E
STARLINK-1230 3.6 20:09:40 10° WSW 20:13:48 76° SSE 20:17:58 10° ENE
STARLINK-1105 3.6 20:11:06 10° WNW 20:14:10 54° N 20:17:13 10° E
NOSS 2-2 (C) 4.1 20:11:37 10° S 20:14:39 26° ESE 20:17:59 10° ENE
STARLINK-1247 3.6 20:11:59 10° WNW 20:15:03 55° N 20:18:08 10° E
STARLINK-1227 3.6 20:12:28 10° WNW 20:15:32 54° N 20:18:37 10° E
STARLINK-1226 3.6 20:13:19 10° WNW 20:16:24 55° N 20:19:28 10° E
STARLINK-1154 4.1 20:12:29 10° W 20:16:37 65° N 20:20:45 10° ENE
SL-4 R/B 4.0 20:15:28 10° W 20:16:42 12° WSW 20:17:55 10° SW
STARLINK-1144 3.7 20:13:09 10° WNW 20:17:16 66° SSW 20:21:23 10° SE
STARLINK-1215 3.6 20:14:13 10° WNW 20:17:18 55° N 20:20:23 10° E
Cosmos 2221 Rocket 4.4 20:14:00 10° SSW 20:18:27 57° WNW 20:22:58 10° N
STARLINK-1243 3.6 20:14:39 10° WSW 20:18:48 80° SSE 20:22:58 10° ENE
ATLAS 2AS CENTAUR R/B 4.4 20:14:01 10° SE 20:18:56 18° ESE 20:23:52 10° ENE
STARLINK-1217 3.6 20:16:03 10° WNW 20:19:08 55° N 20:22:12 10° E
NOSS 3-2 (A) 4.2 20:11:58 10° NW 20:19:15 74° NE 20:27:34 10° SE
SPOT 5 3.4 20:14:32 10° SE 20:19:40 55° ENE 20:24:54 10° N
STARLINK-1229 3.6 20:16:58 10° WNW 20:20:02 55° N 20:23:08 10° E
STARLINK-1270 3.5 20:17:51 10° WNW 20:20:56 55° N 20:24:01 10° E
STARLINK-1197 4.1 20:17:27 10° W 20:21:35 64° N 20:25:43 10° ENE
NOSS 8 (F) 4.0 20:18:42 10° SW 20:21:52 75° SE 20:24:56 10° NE
Meteor 1-13 Rocket 4.4 20:16:28 10° SSW 20:22:07 80° WNW 20:27:57 10° N
STARLINK-1103 3.8 20:18:07 10° WNW 20:22:14 62° SSW 20:26:13 11° SE
STARLINK-1189 3.5 20:19:39 10° WNW 20:22:44 56° N 20:25:49 10° E
STARLINK-1188 3.5 20:20:34 10° WNW 20:23:39 56° N 20:26:44 10° E
STARLINK-1236 3.6 20:19:36 10° WSW 20:23:46 83° SSE 20:27:56 10° ENE
STARLINK-1187 3.4 20:21:39 10° WNW 20:24:43 57° N 20:27:47 10° E
ERS-1 Rocket 3.1 20:19:51 10° SSE 20:24:50 68° ENE 20:29:52 10° N
STARLINK-1191 3.5 20:23:01 10° WNW 20:26:05 56° N 20:29:08 10° E
STARLINK-1198 4.1 20:22:27 10° W 20:26:34 63° N 20:30:42 10° ENE
STARLINK-1221 3.5 20:23:58 10° WNW 20:27:02 56° N 20:30:06 10° E
STARLINK-1101 3.8 20:23:06 10° WNW 20:27:12 59° SSW 20:31:00 12° SE
STARLINK-1222 3.5 20:24:49 10° WNW 20:27:53 57° N 20:30:57 10° E
STARLINK-1214 3.5 20:25:42 10° WNW 20:28:47 57° N 20:31:51 10° E
Cosmos 1066 Rocket 4.1 20:24:24 10° S 20:29:44 67° E 20:35:04 10° NNE
USA 238 DEB 3.9 20:24:01 10° NW 20:31:12 81° NE 20:38:25 11° SE
USA 245 3.2 20:28:25 10° S 20:31:15 44° WSW 20:33:41 10° NNW
USA 238 4.0 20:24:07 10° NW 20:31:18 81° NE 20:38:32 11° SE
STARLINK-1199 4.1 20:27:28 10° W 20:31:35 63° N 20:35:43 10° ENE
STARLINK-1102 3.9 20:28:06 10° WNW 20:32:10 55° SSW 20:35:48 13° SE
STARLINK-1228 3.5 20:29:46 10° WNW 20:33:15 66° N 20:36:45 10° E
Okean 1 Rocket 3.1 20:28:52 10° N 20:33:22 87° WSW 20:37:48 10° S
Cosmos 1805 3.4 20:29:45 10° N 20:33:40 60° ENE 20:37:07 13° SSE
STARLINK-1269 3.6 20:29:34 10° WSW 20:33:43 90° WSW 20:37:54 10° ENE
Cosmos 2278 Rocket 3.5 20:29:29 10° WSW 20:34:55 45° NW 20:40:23 10° NNE
TSX-5 4.2 20:29:30 10° SSW 20:34:58 84° ESE 20:39:12 10° NE
Resurs 01 Rocket 3.5 20:31:11 10° SSW 20:35:00 28° W 20:38:51 10° NW
Nadezhda 4 Rocket 4.0 20:30:07 10° S 20:36:13 72° E 20:42:19 10° NNE
STARLINK-1210 4.1 20:32:27 10° W 20:36:34 62° N 20:40:42 10° E
STARLINK-1235 3.3 20:33:24 10° WNW 20:36:38 64° N 20:39:51 10° E
STARLINK-1111 3.9 20:33:05 10° WNW 20:37:07 52° SSW 20:40:34 14° SE
STARLINK-1200 3.6 20:34:33 10° WSW 20:38:42 87° NNW 20:42:52 10° ENE
Cosmos 1455 Rocket 4.0 20:34:54 10° N 20:38:55 35° ENE 20:42:18 13° SE
STARLINK-1219 4.1 20:37:26 10° W 20:41:33 62° N 20:45:41 10° E
STARLINK-1073 4.0 20:38:05 10° WNW 20:42:05 49° SSW 20:45:22 15° SE
SL-8 R/B 4.2 20:37:47 10° W 20:42:21 44° SSW 20:46:16 14° SE
STARLINK-1192 3.7 20:39:32 10° WSW 20:43:42 84° NNW 20:47:52 10° ENE
ATLAS CENTAUR R/B 3.4 20:44:46 10° NW 20:45:53 14° N 20:46:59 10° NE
STARLINK-1211 4.1 20:42:26 10° W 20:46:34 62° N 20:50:41 10° E
STARLINK-1121 4.1 20:43:04 10° WNW 20:47:03 46° SSW 20:50:08 16° SE
SL-4 R/B 3.6 20:44:46 10° S 20:48:20 21° SE 20:51:57 10° E
Terra 1.9 20:44:22 13° SSE 20:48:31 69° ENE 20:53:16 10° N
STARLINK-1244 3.7 20:44:31 10° WSW 20:48:40 81° NNW 20:52:50 10° ENE
Cosmos 1110 Rocket 3.9 20:43:32 10° SSW 20:48:42 79° ESE 20:53:54 10° NNE
Spot 2 Rocket 4.4 20:45:07 10° S 20:49:54 43° W 20:54:44 10° NNW
Abrixas rocket 3.6 20:48:25 10° WSW 20:50:40 20° SSW 20:51:50 16° S
SPOT 1/Viking Rocket 4.0 20:45:37 10° S 20:50:42 58° W 20:55:49 10° NNW
Cosmos 1842 4.1 20:48:51 15° SSE 20:51:32 34° E 20:55:05 10° NNE
STARLINK-1245 4.1 20:47:25 10° W 20:51:33 62° N 20:55:40 10° E
CARTOSAT-1 3.7 20:47:49 12° S 20:51:48 76° WSW 20:56:08 10° NNW
STARLINK-1106 4.2 20:48:05 10° WNW 20:52:02 43° SSW 20:54:56 17° SSE
ERBS 4.1 20:49:55 10° W 20:52:58 34° NNW 20:56:04 10° NE
NOSS 8 (H) 4.1 20:49:56 10° SW 20:53:02 88° NW 20:56:09 10° NE
STARLINK-1138 3.8 20:49:30 10° WSW 20:53:39 79° NNW 20:57:49 10° ENE
STARLINK-1234 3.1 20:51:10 10° WNW 20:54:28 76° NNE 20:57:43 10° ESE
STARLINK-1233 4.1 20:52:23 10° W 20:56:31 62° N 21:00:38 10° E
STARLINK-1112 4.3 20:53:03 10° WNW 20:56:57 40° SW 20:59:42 17° SSE
STARLINK-1143 3.8 20:54:28 10° W 20:58:37 76° NNW 21:02:46 10° ENE
STARLINK-1209 3.0 20:57:08 10° WNW 21:00:27 82° NNE 21:03:27 12° ESE
STARLINK-1204 4.1 20:57:24 10° W 21:01:31 62° N 21:05:39 10° E
STARLINK-1128 4.4 20:58:03 10° WNW 21:01:54 38° SW 21:04:28 18° SSE
STARLINK-1241 3.8 20:59:30 10° W 21:03:39 74° NNW 21:07:48 10° ENE
Cosmos 1331 Rocket 4.0 21:00:20 10° SSW 21:05:30 86° WNW 21:10:45 10° NNE
Aureole 2 Rocket 3.6 21:03:26 10° SW 21:06:19 36° WNW 21:09:04 10° N
STARLINK-1238 4.1 21:02:24 10° WNW 21:06:32 63° N 21:10:39 10° E
Cosmos 1733 3.1 21:02:56 10° N 21:06:47 87° W 21:09:32 18° S
STARLINK-1113 4.5 21:03:04 10° WNW 21:06:52 35° SW 21:09:15 19° SSE
STARLINK-1239 3.9 21:04:29 10° W 21:08:37 72° NNW 21:12:47 10° ENE
STARLINK-1201 4.1 21:07:23 10° WNW 21:11:31 64° N 21:15:39 10° E
COSMOS 2455 4.3 21:09:45 15° SE 21:12:10 19° ESE 21:16:12 10° ENE
Cosmos 1378 3.5 21:09:47 10° SSW 21:13:28 64° WNW 21:17:11 10° N
STARLINK-1240 3.9 21:09:27 10° W 21:13:35 70° N 21:17:44 10° ENE
Cosmos 1486 Rocket 4.1 21:08:59 10° NNW 21:14:20 79° ENE 21:18:13 19° SSE
USA 215 3.7 21:08:54 10° E 21:15:21 64° NNE 21:21:49 10° WNW
Cosmos 1302 Rocket 4.0 21:10:22 10° S 21:15:36 66° ESE 21:20:53 10° NNE
Cosmos 1544 Rocket 3.8 21:11:31 10° N 21:15:48 58° ENE 21:18:39 20° SSE
Cosmos 1271 Rocket 3.8 21:14:22 20° SE 21:16:14 29° E 21:19:41 10° NNE
STARLINK-1206 4.0 21:12:24 10° WNW 21:16:32 64° N 21:20:40 10° E
MTI 3.7 21:13:59 10° NNE 21:17:08 64° ESE 21:18:58 22° S
Cosmos 1242 Rocket 3.2 21:15:26 22° SSE 21:17:23 40° E 21:20:52 10° NNE
STARLINK-1203 4.0 21:14:17 10° W 21:18:29 69° N 21:22:41 10° ENE
STARLINK-1216 4.0 21:14:26 10° W 21:18:34 69° N 21:22:43 10° ENE
STARLINK-60 3.9 21:20:10 26° SE 21:20:11 26° SE 21:22:54 10° E
STARLINK-1205 4.0 21:17:22 10° WNW 21:21:30 65° N 21:25:38 10° E
Cosmos 1092 Rocket 4.0 21:15:37 10° S 21:21:44 86° W 21:27:57 10° N
NOSS 2-2 (D) 3.3 21:19:17 10° SW 21:22:52 79° NW 21:27:05 10° NE
STARLINK-1237 4.0 21:19:26 10° W 21:23:34 67° N 21:27:43 10° ENE
CENTAUR R/B 3.2 21:15:50 10° NW 21:23:46 89° SW 21:31:08 16° SE
Cosmos 1707 3.8 21:24:35 21° SE 21:26:20 31° E 21:29:47 10° NNE
STARLINK-1218 4.0 21:22:22 10° WNW 21:26:31 66° N 21:30:39 10° E
ATLAS 3B R/B 3.2 21:20:22 10° NW 21:27:03 59° NE 21:33:55 10° ESE
SL-27 R/B 2.7 21:23:56 10° NNW 21:27:30 62° WSW 21:29:28 24° S
STARLINK-1202 4.0 21:24:26 10° W 21:28:34 66° N 21:32:42 10° ENE
NOSS 3-2 (C) 4.1 21:21:34 10° NW 21:28:59 78° SW 21:35:37 18° SSE
Cosmos 1766 4.4 21:25:58 10° NNW 21:29:41 39° W 21:32:47 14° SSW
Cosmos 1726 3.5 21:27:37 10° N 21:30:54 29° ENE 21:32:50 18° ESE
STARLINK-1254 3.9 21:27:21 10° WNW 21:31:30 68° N 21:35:38 10° E
ALOS 2 4.1 21:30:24 13° ESE 21:33:23 27° ENE 21:37:04 10° N
Cosmos 1867 3.7 21:28:29 10° NW 21:33:59 75° NE 21:38:07 18° SE
COSMOS 2487 3.7 21:31:56 10° N 21:35:06 32° ENE 21:37:03 18° ESE
STARLINK-1231 3.9 21:32:19 10° WNW 21:36:29 69° N 21:40:37 10° E
STARLINK-1246 4.1 21:34:26 10° W 21:38:34 64° N 21:42:42 10° ENE
Cosmos 1943 Rocket 2.2 21:33:21 10° SSW 21:38:54 85° WNW 21:44:33 10° NNE
Cosmos 1992 Rocket 4.4 21:36:08 21° SSE 21:39:12 44° ESE 21:44:09 10° NE
NOSS 2-2 (E) 4.3 21:36:42 10° WSW 21:40:18 50° NW 21:44:36 10° NE
NOSS 3-4 (A) 3.9 21:36:32 18° S 21:40:28 39° ESE 21:46:16 10° NE
NOSS 3-4 (C) 3.9 21:36:40 18° S 21:40:34 39° ESE 21:46:22 10° NE
STARLINK-1232 3.9 21:37:20 10° WNW 21:41:29 71° NNE 21:45:38 10° E
SeaSat 1 3.2 21:37:42 10° NE 21:42:14 35° ESE 21:44:34 23° SSE
EO 1 Del DPAF 3.7 21:39:16 10° NNE 21:42:54 43° E 21:44:29 27° SSE
STARLINK-1224 4.1 21:39:25 10° W 21:43:33 63° N 21:47:40 10° ENE
STARLINK-1208 3.8 21:42:17 10° WNW 21:46:27 72° NNE 21:50:36 10° E
Cosmos 1975 Rocket 3.7 21:44:36 12° SSW 21:48:32 54° WNW 21:52:52 10° N
STARLINK-1225 4.1 21:44:26 10° W 21:48:33 63° N 21:52:41 10° ENE
STARLINK-1212 2.8 21:46:30 10° WNW 21:49:36 68° SSW 21:50:47 34° SE
STARLINK-1105 2.8 21:46:58 10° WNW 21:50:04 68° SSW 21:51:13 34° SE
Meteor 2-10 4.1 21:45:39 10° N 21:50:41 66° ENE 21:53:43 24° SSE
STARLINK-1247 2.8 21:47:51 10° WNW 21:50:58 67° SSW 21:52:06 34° SE
STARLINK-1227 2.8 21:48:20 10° WNW 21:51:26 66° SSW 21:52:32 35° SE
STARLINK-1271 3.8 21:47:18 10° WNW 21:51:28 74° NNE 21:55:37 10° E
Cosmos 292 Rocket 3.7 21:48:20 16° SSW 21:52:09 83° ESE 21:57:03 10° NNE
BREEZE-M DEB (TANK) 3.3 21:39:41 10° WSW 21:52:12 70° S 21:55:43 10° E
STARLINK-1226 2.8 21:49:12 10° WNW 21:52:18 66° SSW 21:53:24 35° SE
BREEZE-M DEB (TANK) 2.8 21:49:02 10° W 21:52:49 70° S 21:56:46 10° ESE
STARLINK-1215 2.8 21:50:06 10° WNW 21:53:12 65° SSW 21:54:16 36° SE
STARLINK-1230 4.1 21:49:25 10° W 21:53:32 62° N 21:57:39 10° E
Cosmos 2227 Rocket 4.4 21:49:39 10° NNW 21:53:55 21° NE 21:58:10 10° E
S3M 4.0 21:47:50 10° N 21:54:02 77° E 21:58:10 22° SSE
RESURS DK-1 4.4 21:53:57 14° ESE 21:54:21 14° ESE 21:56:27 10° ENE
STARLINK-1217 2.8 21:51:55 10° WNW 21:55:01 63° SSW 21:56:00 37° SE
Cosmos 2369 Rocket 2.2 21:49:24 10° SSW 21:55:05 87° WNW 22:00:47 10° NNE
STARLINK-1229 2.8 21:52:50 10° WNW 21:55:56 62° SSW 21:56:54 38° SE
STARLINK-1154 3.7 21:52:17 10° WNW 21:56:28 77° NNE 22:00:36 10° E
STARLINK-1270 2.8 21:53:43 10° WNW 21:56:49 62° SSW 21:57:45 39° SE
Aureole 3 Rocket 4.4 21:51:38 10° NNW 21:57:40 73° W 22:03:54 19° S
STARLINK-1243 4.1 21:54:25 10° W 21:58:33 62° N 22:02:40 10° E
STARLINK-1189 2.9 21:55:31 10° WNW 21:58:37 60° SSW 21:59:29 40° SE
STARLINK-1188 2.9 21:56:26 10° WNW 21:59:31 59° SSW 22:00:21 41° SSE
Cosmos 1340 Rocket 3.1 21:56:31 10° N 22:00:33 59° ENE 22:02:31 28° SE
STARLINK-1187 3.0 21:57:32 10° WNW 22:00:35 53° SSW 22:01:14 42° SSE
ATLAS CENTAUR R/B 2.1 21:59:35 28° SSE 22:00:54 35° ESE 22:04:41 10° NE
STARLINK-1197 3.7 21:57:15 10° WNW 22:01:24 79° NNE 22:05:34 10° ESE
STARLINK-1191 2.9 21:58:53 10° WNW 22:01:56 57° SSW 22:02:39 43° SSE
Aureole 3 3.7 21:59:21 10° N 22:02:25 35° ENE 22:03:24 27° ESE
STARLINK-1221 2.9 21:59:50 10° WNW 22:02:53 56° SSW 22:03:34 43° SSE
STARLINK-1236 4.1 21:59:24 10° W 22:03:31 62° N 22:07:39 10° E
Thor Agena Rocket 3.6 21:58:24 10° NNE 22:03:44 77° ESE 22:07:12 22° S
STARLINK-1222 2.9 22:00:41 10° WNW 22:03:44 55° SSW 22:04:23 44° SSE
STARLINK-1214 2.9 22:01:35 10° WNW 22:04:38 55° SSW 22:05:15 44° SSE
NOSS 7 (A) 4.5 22:03:59 32° SSW 22:05:13 68° SE 22:08:07 10° NE
Cosmos 1025 Rocket 2.9 22:02:57 26° S 22:05:19 84° E 22:09:39 10° NNE
Cosmos 1908 4.4 22:02:06 10° N 22:05:36 33° ENE 22:07:21 22° ESE
EXPRESS MD2 4.2 22:02:09 10° W 22:06:19 82° S 22:15:13 10° E
STARLINK-1198 3.6 22:02:13 10° WNW 22:06:24 82° NNE 22:10:32 10° ESE
Cosmos 1553 Rocket 4.2 22:01:15 10° NNW 22:07:30 68° W 22:11:43 21° S
BREEZE M DEB (TANK) 1.5 22:05:34 10° WSW 22:08:27 65° S 22:08:33 63° SSE
ATLAS 2AS CENTAUR R/B 3.1 22:00:46 10° SSW 22:08:39 66° SE 22:16:29 10° NE
Cosmos 1656 Rocket 3.7 22:04:50 20° SSW 22:08:43 67° ESE 22:14:15 10° NNE
Cosmos 1953 2.2 22:04:52 10° N 22:08:54 83° ENE 22:10:41 32° SSE
BREEZE-M DEB (TANK) 4.3 21:57:39 10° WNW 22:09:41 48° SW 22:11:56 26° SSE
Cosmos 1470 3.5 22:06:13 10° NNW 22:09:55 43° W 22:11:51 24° SSW
STARLINK-1228 3.6 22:07:05 10° WNW 22:10:26 44° SSW 22:11:08 38° S
STARLINK-1199 3.6 22:07:14 10° WNW 22:11:24 84° NNE 22:15:21 11° ESE
STARLINK-1235 3.4 22:09:48 10° WNW 22:12:53 41° SSW 22:13:12 40° SSW
APEX 4.2 22:06:53 10° SSW 22:13:18 86° WNW 22:18:31 10° NNE
STARLINK-1269 4.1 22:09:24 10° W 22:13:31 62° N 22:17:38 10° E
Cosmos 2292 Rocket 3.5 22:13:23 33° SE 22:14:29 45° E 22:17:33 10° NNE
Cosmos 968 Rocket 4.1 22:09:50 10° NW 22:14:44 45° WSW 22:17:31 23° SSW
STARLINK-1210 3.6 22:12:12 10° WNW 22:16:22 87° NNE 22:20:07 13° ESE
STARLINK-1200 4.1 22:14:22 10° W 22:18:30 62° N 22:22:37 10° E
Cosmos 1655 Rocket 4.0 22:15:01 22° S 22:19:16 87° E 22:25:35 10° N
Cosmos 1777 Rocket 4.4 22:14:42 10° NNW 22:19:53 58° ENE 22:23:18 21° SE
SL-4 R/B 0.8 22:20:18 61° NE 22:20:18 61° NE 22:22:18 10° N
STARLINK-1219 3.5 22:17:10 10° WNW 22:21:21 89° SSE 22:24:53 14° ESE
ATLAS 5 CENTAUR R/B 1.4 22:21:46 30° SSW 22:23:05 51° SE 22:25:16 10° ENE
Cosmos 1758 4.4 22:19:37 10° NNW 22:23:23 37° W 22:25:25 22° SW
STARLINK-1192 4.1 22:19:23 10° WNW 22:23:30 63° N 22:27:38 10° E
STARLINK-52 3.8 22:26:27 33° ESE 22:26:27 33° ESE 22:28:47 10° ENE
STARLINK-1211 3.5 22:22:10 10° WNW 22:26:20 86° SSW 22:29:40 16° ESE
Cosmos 2228 3.4 22:22:27 10° N 22:26:37 52° ENE 22:28:36 28° SE
Terra 3.9 22:23:32 10° SW 22:26:45 18° W 22:29:59 10° NW
Cosmos 1726 Rocket 4.2 22:23:12 10° N 22:27:22 44° ENE 22:29:30 25° SE
Meteor 2-15 4.4 22:21:11 10° N 22:27:23 85° E 22:31:06 26° SSE
SL-4 R/B 2.3 22:22:42 10° SW 22:27:28 63° SSE 22:32:15 10° ENE
STARLINK-1244 4.1 22:24:21 10° WNW 22:28:29 63° N 22:32:37 10° E
STARLINK-1234 4.0 22:27:39 10° W 22:30:16 30° SW 22:30:16 30° SW
STARLINK-1245 3.5 22:27:08 10° WNW 22:31:18 83° SSW 22:34:26 17° ESE
Cosmos 1300 4.5 22:28:26 10° NNE 22:31:33 23° ENE 22:33:33 16° ESE
In-Cosmos 22 4.0 22:30:05 27° S 22:33:04 80° E 22:38:23 10° NNE
STARLINK-1138 4.0 22:29:21 10° WNW 22:33:29 64° N 22:37:36 10° E
STARLINK-1233 3.5 22:32:06 10° WNW 22:36:16 79° SSW 22:39:12 19° ESE
STARLINK-1209 4.3 22:33:53 10° W 22:36:13 26° SW 22:36:13 26° SW
Cosmos 2266 Rocket 3.9 22:33:43 24° S 22:37:32 88° E 22:43:36 10° N
STARLINK-1143 4.0 22:34:19 10° WNW 22:38:27 65° N 22:42:35 10° E
STARLINK-1204 3.5 22:37:06 10° WNW 22:41:14 76° SSW 22:43:59 20° ESE
SJ 16-02 3.4 22:39:26 10° N 22:42:56 22° NE 22:46:24 10° ESE
STARLINK-1241 4.0 22:39:21 10° WNW 22:43:29 66° N 22:47:37 10° E
STARLINK-1238 3.5 22:42:06 10° WNW 22:46:14 72° SSW 22:48:47 22° SE
Meteor 2-15 Rocket 4.4 22:41:07 10° N 22:47:19 87° W 22:50:55 27° S
Cosmos 1536 Rocket 4.4 22:45:44 20° SW 22:48:24 43° WNW 22:52:35 10° N
STARLINK-1239 4.0 22:44:19 10° WNW 22:48:28 67° N 22:52:36 10° E
Helios 1B rocket 4.2 22:45:35 10° NE 22:48:44 21° E 22:50:09 17° ESE
Cosmos 1674 2.6 22:48:20 39° S 22:49:36 76° E 22:53:24 10° NNE
STARLINK-1201 3.5 22:47:04 10° WNW 22:51:12 68° SSW 22:53:33 24° SE
Cosmos 1271 Rocket 4.5 22:49:29 13° WSW 22:52:13 27° WNW 22:55:39 10° N
STARLINK-1240 3.9 22:49:17 10° WNW 22:53:26 68° N 22:57:34 10° E
STARLINK-60 2.9 22:52:52 10° WSW 22:56:03 82° NNW 22:59:15 10° ENE
STARLINK-1206 3.5 22:52:04 10° WNW 22:56:11 65° SSW 22:58:21 26° SE
COSMOS 2455 2.8 22:52:50 19° SSW 22:57:16 87° SE 23:03:21 10° NE
Cosmos 2219 3.7 22:52:06 10° NNW 22:57:42 56° NE 23:02:18 15° SE
USA 215 3.2 22:52:57 16° SE 22:58:24 67° SW 23:04:56 10° WNW
STARLINK-1216 3.9 22:54:16 10° WNW 22:58:25 70° N 23:02:33 10° E
STARLINK-1203 3.9 22:54:21 10° WNW 22:58:33 71° NNE 23:02:45 10° E
STARLINK-1205 3.6 22:57:02 10° WNW 23:01:08 61° SSW 23:03:07 28° SE
STARLINK-1350 4.4 23:01:49 28° SE 23:01:49 28° SE 23:04:38 10° E
Cosmos 2297 Rocket 2.9 22:56:25 10° NNW 23:01:57 51° NE 23:07:00 12° SE
Helios 1A 2.9 23:01:35 35° S 23:03:19 80° WSW 23:07:32 10° NNW
STARLINK-1237 3.8 22:59:15 10° WNW 23:03:24 72° N 23:07:33 10° E
Lacrosse 4 Rocket 3.6 23:01:56 10° NNW 23:05:35 25° NE 23:09:09 10° E
Cosmos 1726 3.7 23:02:56 10° NNW 23:06:02 25° W 23:07:20 20° WSW
STARLINK-1218 3.6 23:02:02 10° WNW 23:06:07 58° SSW 23:07:55 30° SE
STARLINK-1368 4.2 23:08:27 32° SE 23:08:27 32° SE 23:11:37 10° E
Cosmos 1174 3.8 23:06:36 27° WSW 23:08:16 64° NW 23:12:12 10° NE
STARLINK-1202 3.8 23:04:15 10° WNW 23:08:24 74° NNE 23:12:33 10° E
Timation 2 Rocket 3.9 23:03:02 10° NW 23:09:21 70° WSW 23:12:55 26° SSE
ALOS 2 3.3 23:07:47 28° SSW 23:09:34 41° W 23:13:45 10° NNW
Cosmos 2058 Rocket 3.1 23:05:27 10° N 23:09:55 77° ENE 23:11:58 32° SSE
COSMOS 2487 4.0 23:07:17 10° NW 23:09:59 22° WSW 23:10:32 21° WSW
STARLINK-1254 3.7 23:07:01 10° WNW 23:11:05 54° SSW 23:12:41 32° SSE
STARLINK-1369 4.1 23:11:47 34° SE 23:11:47 34° SE 23:15:07 10° E
CENTAUR R/B 4.2 23:07:10 10° WNW 23:13:57 30° WSW 23:18:17 20° SSW
STARLINK-1372 4.0 23:15:07 35° SE 23:15:08 35° SE 23:18:38 10° ENE
STARLINK-1231 3.7 23:12:00 10° WNW 23:16:02 51° SSW 23:17:27 34° SSE
Meteor 2-5 Rocket 3.7 23:14:12 28° S 23:17:14 85° E 23:22:56 10° NNE
ATLAS 3B R/B 3.2 23:11:17 10° NW 23:17:38 44° WSW 23:21:09 25° S
STARLINK-1246 3.7 23:14:14 10° WNW 23:18:23 78° NNE 23:22:33 10° ESE
STARLINK-1378 3.9 23:18:28 37° SSE 23:18:36 37° SE 23:22:08 10° ENE
SeaSat 1 3.4 23:15:09 10° NNE 23:19:51 46° NW 23:24:21 11° WSW
Cosmos 1606 Rocket 4.1 23:15:44 10° NNW 23:19:53 46° W 23:21:36 29° SSW
SL-14 R/B 3.4 23:19:11 37° SSE 23:20:29 61° E 23:24:18 10° NNE
STARLINK-1232 3.8 23:17:00 10° WNW 23:21:01 48° SSW 23:22:15 35° SSE
FALCON 9 DEB 3.0 23:20:07 41° SW 23:21:06 66° SSE 23:24:32 10° ENE
STARLINK-1379 3.8 23:21:51 38° SSE 23:22:06 39° SSE 23:25:41 10° ENE
STARLINK-1224 3.7 23:19:12 10° WNW 23:23:22 81° NNE 23:27:31 10° ESE
Cosmos 1943 Rocket 4.4 23:19:13 10° W 23:23:31 22° NW 23:27:52 10° NNE
STARLINK-1329 3.8 23:23:14 39° SSE 23:23:33 40° SSE 23:27:08 10° ENE
Meteor 2-21 4.4 23:20:59 27° S 23:24:35 84° E 23:30:50 10° NNE
STARLINK-1208 3.9 23:21:58 10° WNW 23:25:56 45° SSW 23:27:00 36° S
STARLINK-29 2.9 23:24:02 22° WSW 23:25:57 86° NNW 23:29:09 10° ENE
SL-16 R/B 4.1 23:21:32 10° ESE 23:26:46 30° ENE 23:32:01 10° N
STARLINK-1362 3.8 23:26:40 40° SSE 23:27:07 42° SSE 23:30:44 10° ENE
ATLAS CENTAUR R/B 1.0 23:26:01 10° WNW 23:28:11 84° NNE 23:32:16 10° ESE
STARLINK-1225 3.6 23:24:12 10° WNW 23:28:22 83° NNE 23:32:31 10° ESE
STARLINK-1373 3.7 23:30:05 40° S 23:30:40 44° SSE 23:34:21 10° ENE
STARLINK-1271 4.0 23:27:00 10° WNW 23:30:56 42° SSW 23:31:49 37° S
NOSS 3-4 (A) 4.0 23:25:12 10° WSW 23:31:08 57° NW 23:37:36 10° NE
NOSS 3-4 (C) 4.0 23:25:17 10° WSW 23:31:14 58° NW 23:37:42 10° NE
RESURS DK-1 2.4 23:29:48 30° SW 23:31:48 78° WNW 23:35:57 10° NNE
STARLINK-1365 3.7 23:31:12 40° S 23:31:55 46° SSE 23:35:36 10° ENE
STARLINK-1230 3.6 23:29:10 10° WNW 23:33:20 86° NNE 23:37:29 10° ESE
STARLINK-1390 3.7 23:33:34 40° S 23:34:17 46° SSE 23:37:58 10° ENE
Cosmos 1697 Rocket 4.3 23:32:47 15° SE 23:35:40 22° ESE 23:39:56 10° NE
Cosmos 2084 3.4 23:33:36 29° SW 23:35:52 80° SE 23:40:22 10° NE
STARLINK-1154 4.1 23:32:00 10° WNW 23:35:53 40° SW 23:36:35 36° S
Cosmos 1812 Rocket 4.4 23:31:49 10° N 23:36:08 45° ENE 23:38:54 20° SE
BREEZE-M R/B 3.7 23:31:44 14° SW 23:37:06 43° SSE 23:40:37 10° E
Cosmos 1626 2.0 23:36:00 39° SSW 23:37:16 82° W 23:41:02 10° N
STARLINK-1243 3.5 23:34:10 10° WNW 23:38:20 89° N 23:42:29 10° ESE
Cosmos 990 Rocket 4.5 23:33:35 10° NNW 23:38:49 59° ENE 23:43:10 15° SE
Cosmos 2227 Rocket 2.3 23:33:14 10° NNW 23:38:57 77° ENE 23:43:29 16° SE
Okean 1-7 Rocket 3.6 23:37:39 31° SSW 23:39:44 75° W 23:44:19 10° N
ATLAS CENTAUR R/B 2.6 23:35:44 10° WSW 23:39:48 40° NW 23:43:38 10° NNE
Cosmos 2369 Rocket 4.3 23:35:30 10° W 23:39:57 23° NW 23:44:22 10° NNE
STARLINK-1197 4.1 23:36:59 10° WNW 23:40:49 37° SW 23:41:21 35° SSW
CZ-4 R/B 3.8 23:36:43 10° NNE 23:41:31 73° ESE 23:43:50 30° S
STARLINK-1236 3.5 23:39:08 10° WNW 23:43:18 88° SSW 23:47:28 10° ESE
STARLINK-1198 4.2 23:41:59 10° WNW 23:45:45 35° SW 23:46:07 34° SSW
Landsat 4 4.3 23:45:48 10° N 23:49:23 46° WNW 23:51:00 27° SW
Cosmos 1602 Rocket 4.1 23:47:23 26° SSE 23:49:27 49° E 23:53:37 10° NNE
SL-08 ROCKET BODY 4.5 23:46:46 25° S 23:50:17 66° E 23:56:06 10° NNE
STARLINK-1199 4.3 23:47:01 10° W 23:50:44 32° SW 23:50:55 32° SSW
STARLINK-1269 3.5 23:49:06 10° WNW 23:53:16 81° SSW 23:57:24 10° ESE
STARLINK-1210 4.4 23:52:01 10° W 23:55:40 30° SW 23:55:41 30° SW
